星链-32537 (STARLINK-32537)

导读

STARLINK-32537是美国SpaceX公司于2024年11月11日发射的第二代星链卫星,属于星链全球卫星互联网星座的一员。该卫星运行在近地轨道,配备激光星间链路与增强型相控阵天线,支持高速低延迟宽带通信,可为全球基础设施匮乏地区提供互联网接入,助力星链星座实现全球完整覆盖,推动天基互联网网络的扩容升级。

Basic Information
目录编号:
61923
目录名称:
STARLINK-32537
国际标识:
2024-207M
轨道中心:
EARTH
卫星名称:
星链-32537
卫星全名:
星链-32537 (STARLINK-32537)
卫星状态:
在轨 (已飞行669 天)
发射日期:
2024-11-11 UTC
国别 :
美国 (US)
星等 :
--
This satellite is enrolled in the Space Conjunction Data Service (SCDS) and the current flight risk assessment level is: High Risk
Orbit Information
数据来源 国际轨道数据
星历时间: 2026-09-09T14:34:42+0800
2天前
查看轨道信息
半长轴: 6861.153km
偏心率: 0.0002424
轨道倾角: 43.004°
近地点辐角 269.092°
升交点赤经 328.870°
平近点角 90.965°
近地点: 481.352km
远地点: 484.68km
周期: 94.266分钟
每日圈数: 15.275913
Detailed Information
固有亮度:
5
最大亮度:
2.5
卫星平台:
Starlink V1.0
覆盖范围:
全球
运营商:
太空探索技术公司
运营商所在国:
美国
制造商(研发单位):
太空探索技术公司
制造商所在国:
美国
使用方式:
暂无
Satellite Introduction
Starlink 计划是 SpaceX 推出的全球卫星互联网项目,通过发射低轨道卫星,为全球尤其是偏远地区提供高速、低延迟的互联网服务。自 2019 年起,Starlink 已部署数千颗卫星,旨在缩小全球数字鸿沟,推动互联网普及。该项目还为军事、航空等行业提供通信支持,带来广泛经济效益。
2D Orbit Map
3D Orbit Map
Orbit Altitude Analysis Chart
Orbit Inclination Analysis Chart
Orbit Comprehensive Analysis Chart
View Comprehensive Chart
Conjunction Data List
Event ID Objects TCA Miss Dist (km) Collision Risk Probability Collision Risk Index (CRI) Action
CDM_260913-023505-973706-192321
2026-09-13T
02:35:00+0000
0.532 km
远距离
1.227565E-4 高风险 0.77
CDM_260912-150205-907506-192321
2026-09-12T
15:02:18+0000
0.492 km
远距离
7.079998E-5 中风险 0.72
CDM_260912-090106-192306-385521
2026-09-12T
09:01:58+0000
1.022 km
极远距离
1.925764E-5 中风险 0.61
CDM_260911-114205-724006-192321
2026-09-11T
11:42:17+0000
1.145 km
极远距离
1.061399E-5 中风险 0.56
CDM_260912-103606-192306-385521
2026-09-12T
10:36:07+0000
1.223 km
极远距离
1.030498E-5 中风险 0.55
CDM_260912-200205-689306-192321
2026-09-12T
20:02:14+0000
1.251 km
极远距离
9.6124E-6 低风险 0.55
CDM_260912-181206-192306-732121
2026-09-12T
18:12:06+0000
1.090 km
极远距离
7.489456E-6 低风险 0.52
CDM_260913-065606-192306-659421
2026-09-13T
06:56:32+0000
1.411 km
极远距离
6.056372E-6 低风险 0.51
CDM_260912-090205-690306-192321
2026-09-12T
09:02:37+0000
1.442 km
极远距离
5.924695E-6 低风险 0.5
CDM_260913-013006-192306-385521
2026-09-13T
01:30:33+0000
1.444 km
极远距离
5.865028E-6 低风险 0.5
Miss Distance Evolution Trend with All Objects
Collision Probability Evolution Trend with All Objects